CW9487 Tolfa IT current weather conditions

sailwx.info

Wind from 053

Air temperature 9.4° C
Dewpoint 1.4° C

Last reported at 2019-Dec-05 22:01 UTC.
Time now 2019-Dec-05 23:08 UTC

Location: N 42°09' E 011°55'.
View on Google Maps.

See reports from other nearby stations

  
Tides and Currents Weather Stations Pressure Air Temp Water Temp Dewpoint Dewpoint Depression Visibility Wind Speed Wind Dir Waves Ship Positions
date/time (UTC)wind fromknots sea level pressurealtimeterstation pressurevisibilityair tempwater tempwave heightnotes
2019-Dec-05 22:01 053 9.4
2019-Dec-05 21:46 053 9.4
2019-Dec-05 21:31 052 9.4
2019-Dec-05 21:15 052 9.4
2019-Dec-05 21:01 052 9.4
2019-Dec-05 20:45 052 9.4
2019-Dec-05 20:30 052 10.0
2019-Dec-05 20:16 052 10.0
2019-Dec-05 20:00 057 10.0
2019-Dec-05 19:45 057 10.0
2019-Dec-05 19:31 057 10.0
2019-Dec-05 19:15 057 10.0
2019-Dec-05 19:00 057 10.0
2019-Dec-05 18:46 057 10.0
2019-Dec-05 18:30 057 10.0
2019-Dec-05 18:15 057 10.0
2019-Dec-05 18:00 057 10.6
2019-Dec-05 17:45 058 10.6
2019-Dec-05 17:30 066 10.6
2019-Dec-05 17:15 051 10.0
2019-Dec-05 17:00 051 10.0
2019-Dec-05 16:45 050 10.0
2019-Dec-05 16:30 050 10.6
2019-Dec-05 16:15 050 10.6
2019-Dec-05 16:00 050 10.6
2019-Dec-05 15:45 050 11.1
2019-Dec-05 15:30 050 11.1
2019-Dec-05 15:15 050 11.7
2019-Dec-05 15:00 050 11.7
2019-Dec-05 14:45 050 11.7
2019-Dec-05 14:30 050 12.2
2019-Dec-05 14:15 050 12.8
2019-Dec-05 14:00 083 12.8
2019-Dec-05 13:45 078 13.3
2019-Dec-05 13:30 078 0 gusting 6 13.3
2019-Dec-05 13:02 073 13.3
2019-Dec-05 12:47 109 13.3
2019-Dec-05 12:31 090 13.3
2019-Dec-05 12:17 136 12.8
2019-Dec-05 12:01 136 12.8
2019-Dec-05 11:46 136 12.2
2019-Dec-05 11:32 136 11.7
2019-Dec-05 11:16 127 11.7
2019-Dec-05 11:01 123 11.1
2019-Dec-05 10:45 122 11.1
2019-Dec-05 10:30 122 11.1
2019-Dec-05 10:15 118 10.6
2019-Dec-05 10:01 118 10.6
2019-Dec-05 09:46 119 10.6
2019-Dec-05 09:30 105 10.6
2019-Dec-05 09:16 117 10.6
2019-Dec-05 09:01 117 10.6
2019-Dec-05 08:46 113 10.0
2019-Dec-05 08:31 041 9.4
2019-Dec-05 08:15 148 9.4
2019-Dec-05 08:00 140 8.9
2019-Dec-05 07:45 086 8.9
2019-Dec-05 07:30 078 8.9
2019-Dec-05 07:15 086 8.9
2019-Dec-05 07:00 094 8.9
2019-Dec-05 06:45 094 8.9
2019-Dec-05 06:30 088 8.9
2019-Dec-05 06:15 053 8.9
2019-Dec-05 06:00 107 8.9
2019-Dec-05 05:45 107 8.9
2019-Dec-05 05:30 107 8.9
2019-Dec-05 05:17 107 8.9
2019-Dec-05 05:02 107 8.9
2019-Dec-05 04:49 058 8.3
2019-Dec-05 04:31 058 8.3
2019-Dec-05 04:16 052 7.8
2019-Dec-05 04:02 036 7.8
2019-Dec-05 03:46 047 7.2
2019-Dec-05 03:31 011 7.2
2019-Dec-05 03:17 009 7.2
2019-Dec-05 03:02 009 7.2
2019-Dec-05 02:46 009 7.2
2019-Dec-05 02:31 009 6.7
2019-Dec-05 02:16 057 6.7
2019-Dec-05 02:01 057 7.2
2019-Dec-05 01:46 057 7.2
2019-Dec-05 01:31 057 7.8
2019-Dec-05 01:16 044 7.8
2019-Dec-05 01:01 054 7.8
2019-Dec-05 00:46 169 7.8
2019-Dec-05 00:31 169 7.8
2019-Dec-05 00:16 169 7.8
2019-Dec-05 00:00 169 8.3
2019-Dec-04 23:46 347 8.3
2019-Dec-04 23:30 347 7.8
2019-Dec-04 23:15 347 7.2
2019-Dec-04 23:00 347 7.2
2019-Dec-04 22:45 348 7.2
2019-Dec-04 22:30 348 7.2
2019-Dec-04 22:16 348 6.7
2019-Dec-04 22:00 349 6.7
2019-Dec-04 21:45 349 6.1
2019-Dec-04 21:31 355 6.1
2019-Dec-04 21:15 355 6.1
2019-Dec-04 21:00 355 6.1
2019-Dec-04 20:45 355 6.1
2019-Dec-04 20:30 012 6.1
2019-Dec-04 20:15 013 6.7
2019-Dec-04 20:00 015 6.7
2019-Dec-04 19:45 034 6.7
2019-Dec-04 19:30 034 6.7
2019-Dec-04 19:15 036 6.7
2019-Dec-04 19:00 036 6.7
2019-Dec-04 18:45 038 6.7
2019-Dec-04 18:30 038 7.2
2019-Dec-04 18:15 039 7.2
2019-Dec-04 18:00 119 7.8
2019-Dec-04 17:45 119 7.8
2019-Dec-04 17:30 119 7.8
2019-Dec-04 17:15 119 7.8
2019-Dec-04 17:00 119 7.8
2019-Dec-04 16:45 119 7.8
2019-Dec-04 16:30 119 7.8
2019-Dec-04 16:15 119 7.8
2019-Dec-04 16:00 119 7.8
2019-Dec-04 15:45 119 8.3
2019-Dec-04 15:30 122 8.3
2019-Dec-04 15:15 122 8.9
2019-Dec-04 15:00 122 9.4
2019-Dec-04 14:45 122 9.4
2019-Dec-04 14:30 122 10.0
2019-Dec-04 14:15 122 10.0
2019-Dec-04 14:00 122 10.6
2019-Dec-04 13:45 122 11.1
2019-Dec-04 13:31 122 11.1
2019-Dec-04 13:17 121 11.1
2019-Dec-04 13:01 119 11.1
2019-Dec-04 12:46 118 11.7
2019-Dec-04 12:32 137 12.8
2019-Dec-04 12:16 137 12.2
2019-Dec-04 12:02 136 12.2
2019-Dec-04 11:46 213 12.2
2019-Dec-04 11:31 211 12.2
2019-Dec-04 11:16 221 11.7
2019-Dec-04 11:01 170 11.1
2019-Dec-04 10:46 252 0 gusting 2 11.1
2019-Dec-04 10:31 252 10.6
2019-Dec-04 10:16 288 10.0
2019-Dec-04 10:00 288 8.9
2019-Dec-04 09:45 288 9.4
2019-Dec-04 09:30 288 9.4
2019-Dec-04 09:15 288 8.9
2019-Dec-04 09:00 300 8.9
2019-Dec-04 08:45 300 7.8
2019-Dec-04 08:30 297 7.2
2019-Dec-04 08:15 298 6.7
2019-Dec-04 08:00 297 5.6
2019-Dec-04 07:45 297 5.0
2019-Dec-04 07:31 297 4.4
2019-Dec-04 07:18 297 3.9
2019-Dec-04 07:01 297 3.3
2019-Dec-04 06:47 286 3.3
2019-Dec-04 06:32 286 3.3
2019-Dec-04 06:17 286 3.3
2019-Dec-04 06:02 287 2.8
2019-Dec-04 05:46 287 2.8
2019-Dec-04 05:31 287 2.2
2019-Dec-04 05:16 287 2.2
2019-Dec-04 05:01 287 2.2
2019-Dec-04 04:46 309 2.2
2019-Dec-04 04:31 309 2.2
2019-Dec-04 04:16 310 2.2
2019-Dec-04 04:01 315 2.8
2019-Dec-04 03:46 306 2.2
2019-Dec-04 03:30 306 2.2
2019-Dec-04 03:15 296 2.8
2019-Dec-04 03:01 297 2.8
2019-Dec-04 02:46 296 2.8
2019-Dec-04 02:31 296 2.8
2019-Dec-04 02:16 297 2.8
2019-Dec-04 02:00 297 2.8
2019-Dec-04 01:46 297 2.8
2019-Dec-04 01:30 298 2.8
2019-Dec-04 01:15 298 2.8
2019-Dec-04 01:00 298 2.8
2019-Dec-04 00:45 298 2.8
2019-Dec-04 00:30 298 2.8
2019-Dec-04 00:15 298 3.3
2019-Dec-04 00:00 298 3.3
2019-Dec-03 23:45 298 3.3
2019-Dec-03 23:30 298 3.3
2019-Dec-03 23:15 298 3.3
2019-Dec-03 23:00 298 3.3